TimeCDT,TemperatureF,Dew PointF,Humidity,Sea Level PressureIn,VisibilityMPH,Wind Direction,Wind SpeedMPH,Gust SpeedMPH,PrecipitationIn,Events,Conditions,WindDirDegrees,DateUTC
12:15 AM,60.8,57.2,88,29.96,10.0,Calm,Calm,-,N/A,,Scattered Clouds,0,2013-06-30 05:15:00
12:55 AM,59.0,57.2,94,29.97,10.0,Calm,Calm,-,N/A,,Clear,0,2013-06-30 05:55:00
1:15 AM,59.0,57.2,94,29.98,10.0,Calm,Calm,-,N/A,,Clear,0,2013-06-30 06:15:00
1:55 AM,57.2,57.2,100,29.99,10.0,Calm,Calm,-,N/A,,Scattered Clouds,0,2013-06-30 06:55:00
2:15 AM,59.0,57.2,94,29.98,10.0,Calm,Calm,-,N/A,,Scattered Clouds,0,2013-06-30 07:15:00
7:55 AM,60.8,55.4,82,30.05,10.0,NE,9.2,-,N/A,,Clear,40,2013-06-30 12:55:00
8:15 AM,60.8,55.4,82,30.05,10.0,NNE,8.1,-,N/A,,Clear,30,2013-06-30 13:15:00
8:35 AM,62.6,55.4,77,30.06,10.0,NNE,8.1,-,N/A,,Clear,20,2013-06-30 13:35:00
8:55 AM,64.4,53.6,68,30.07,-9999.0,NE,6.9,-,N/A,,Clear,40,2013-06-30 13:55:00
9:15 AM,64.4,53.6,68,30.07,10.0,NNE,9.2,-,N/A,,Clear,20,2013-06-30 14:15:00
9:35 AM,64.4,53.6,68,30.07,10.0,NNE,10.4,-,N/A,,Clear,30,2013-06-30 14:35:00
9:55 AM,64.4,53.6,68,30.07,10.0,NNE,9.2,-,N/A,,Clear,30,2013-06-30 14:55:00
10:15 AM,66.2,53.6,64,30.07,10.0,NNE,8.1,-,N/A,,Clear,20,2013-06-30 15:15:00
10:35 AM,68.0,53.6,60,30.08,10.0,NNE,10.4,-,N/A,,Clear,20,2013-06-30 15:35:00
10:55 AM,68.0,53.6,60,30.08,10.0,NNE,10.4,16.1,N/A,,Clear,30,2013-06-30 15:55:00
11:15 AM,69.8,53.6,56,30.08,10.0,NNE,10.4,-,N/A,,Clear,20,2013-06-30 16:15:00
11:35 AM,69.8,53.6,56,30.08,10.0,NNE,11.5,-,N/A,,Clear,30,2013-06-30 16:35:00
11:55 AM,71.6,53.6,53,30.08,10.0,NE,9.2,-,N/A,,Clear,40,2013-06-30 16:55:00
12:15 PM,71.6,48.2,43,30.08,10.0,NNE,12.7,19.6,N/A,,Clear,20,2013-06-30 17:15:00
12:35 PM,73.4,50.0,44,30.08,9.0,NNE,12.7,-,N/A,,Clear,30,2013-06-30 17:35:00
12:55 PM,73.4,50.0,44,30.08,10.0,North,9.2,18.4,N/A,,Clear,10,2013-06-30 17:55:00
1:15 PM,75.2,50.0,41,30.07,10.0,ENE,11.5,18.4,N/A,,Clear,60,2013-06-30 18:15:00
1:35 PM,75.2,48.2,38,30.07,10.0,NNE,15.0,-,N/A,,Clear,30,2013-06-30 18:35:00
1:55 PM,75.2,50.0,41,30.07,10.0,NNE,12.7,-,N/A,,Clear,30,2013-06-30 18:55:00
2:15 PM,75.2,48.2,38,30.08,10.0,NE,13.8,20.7,N/A,,Clear,50,2013-06-30 19:15:00
2:35 PM,75.2,48.2,38,30.07,10.0,NNE,13.8,-,N/A,,Clear,30,2013-06-30 19:35:00
2:55 PM,77.0,48.2,36,30.07,10.0,NE,13.8,20.7,N/A,,Clear,40,2013-06-30 19:55:00
3:15 PM,77.0,48.2,36,30.07,10.0,NNE,11.5,17.3,N/A,,Clear,20,2013-06-30 20:15:00
3:35 PM,77.0,48.2,36,30.07,10.0,North,12.7,19.6,N/A,,Clear,10,2013-06-30 20:35:00
3:55 PM,77.0,46.4,34,30.07,9.0,NE,12.7,-,N/A,,Clear,40,2013-06-30 20:55:00
4:15 PM,77.0,46.4,34,30.07,9.0,ENE,11.5,-,N/A,,Clear,60,2013-06-30 21:15:00
4:35 PM,77.0,46.4,34,30.07,10.0,NE,11.5,19.6,N/A,,Clear,40,2013-06-30 21:35:00
4:55 PM,77.0,46.4,34,30.07,9.0,NNE,13.8,-,N/A,,Clear,30,2013-06-30 21:55:00
5:15 PM,77.0,46.4,34,30.07,9.0,NNE,12.7,-,N/A,,Clear,30,2013-06-30 22:15:00
5:35 PM,77.0,44.6,32,30.06,9.0,NNE,13.8,-,N/A,,Clear,30,2013-06-30 22:35:00
5:55 PM,77.0,44.6,32,30.07,-9999.0,NE,10.4,17.3,N/A,,Clear,40,2013-06-30 22:55:00
6:15 PM,77.0,46.4,34,30.07,9.0,NE,11.5,-,N/A,,Clear,50,2013-06-30 23:15:00
6:35 PM,75.2,46.4,36,30.07,9.0,NE,9.2,16.1,N/A,,Clear,50,2013-06-30 23:35:00
6:55 PM,75.2,46.4,36,30.07,9.0,NE,6.9,15.0,N/A,,Clear,40,2013-06-30 23:55:00
7:15 PM,75.2,50.0,41,30.07,9.0,NNE,8.1,13.8,N/A,,Clear,30,2013-07-01 00:15:00
7:35 PM,73.4,50.0,44,30.08,9.0,NNE,9.2,-,N/A,,Clear,30,2013-07-01 00:35:00
7:55 PM,73.4,50.0,44,30.07,8.0,NNE,5.8,-,N/A,,Clear,20,2013-07-01 00:55:00
8:15 PM,71.6,50.0,46,30.08,8.0,NNE,5.8,-,N/A,,Clear,20,2013-07-01 01:15:00
8:35 PM,69.8,51.8,53,30.08,7.0,North,4.6,-,N/A,,Clear,10,2013-07-01 01:35:00
8:55 PM,69.8,51.8,53,30.08,6.0,North,4.6,-,N/A,,Haze,10,2013-07-01 01:55:00
9:15 PM,68.0,51.8,56,30.09,6.0,Calm,Calm,-,N/A,,Haze,0,2013-07-01 02:15:00
9:55 PM,66.2,51.8,60,30.10,9.0,NNE,5.8,-,N/A,,Scattered Clouds,20,2013-07-01 02:55:00
10:15 PM,64.4,53.6,68,30.11,9.0,NNE,4.6,-,N/A,,Overcast,20,2013-07-01 03:15:00
10:35 PM,62.6,53.6,72,30.11,10.0,Calm,Calm,-,N/A,,Overcast,0,2013-07-01 03:35:00
11:35 PM,59.0,53.6,82,30.12,10.0,Calm,Calm,-,N/A,,Overcast,0,2013-07-01 04:35:00
11:55 PM,57.2,53.6,88,30.12,10.0,NE,3.5,-,N/A,,Overcast,40,2013-07-01 04:55:00